Weather in Cairo

Egypt     30°00′26″N   31°13′50″E
temp.,
°C
wind,
m/s
gust,
m/s
humid.,
%
clouds,
%
prec.,
mm/h
press.,
hPa
HPBL,
m
23 april, fri
fri2323:00+18ne710510 0.0 1019461
02:00+16nne710600 0.0 1018418
05:00+15nne610661 0.0 1018370
08:00+18nne79510 0.0 1018548
11:00+26ne892393 0.0 10161000
14:00+30ne781572 0.0 10141309
17:00+29nne87151 0.0 10131546
20:00+23ne811310 0.0 1015441
24 april, sat
sat2423:00+19ne69560 0.0 1015392
02:00+18ne58672 0.0 1013310
05:00+17nne58705 0.0 1013281
08:00+20ne685385 0.0 1013484
11:00+27nne672259 0.0 1012917
14:00+32nne5612100 0.0 10091576
17:00+32ne87120 0.0 10091291
20:00+25ene69250 0.0 1010331
25 april, sun
sun2523:00+22ene47340 0.0 1011205
02:00+21ne35345 0.0 1009147
05:00+21e233111 0.0 100859
08:00+26ssw11205 0.0 1008188
11:00+31s12120 0.0 1008559
14:00+37wsw3450 0.0 10061773
17:00+38wsw5775 0.0 10043018
20:00+24nnw911470 0.0 1009507
26 april, mon
mon2623:00+20nnw710590 0.0 1010481
02:00+18nnw69690 0.0 1010456
05:00+17nnw68761 0.0 1011533
08:00+19nnw56650 0.0 1013791
11:00+24nnw55390 0.0 10131263
14:00+28nw66250 0.0 10112003
17:00+27nw87270 0.0 10111884
20:00+21nnw89500 0.0 1013726
27 april, tue
tue2723:00+18nnw79650 0.0 1015643
02:00+16nnw58720 0.0 1014564
05:00+16nnw46760 0.0 1014438
08:00+18n56620 0.0 1015733
11:00+23n34350 0.0 10151210
14:00+28nnw24200 0.0 10121809
17:00+31nnw66150 0.0 10112218
20:00+23n89410 0.0 1014691